Página principal
METAR-TAF:

METAR-TAF

Aeroportos :

Llano Municipal Airport

Llano, Texas, Estados Unidos

latitude: 30-47-01N, longitude: 098-39-43W, altura: 336 m

Observação actual do tempo

O boletim foi feito há 15 minutos, às 17:35 UTC
Vento 8 kt de oes-noroeste
Temperatura 20°C
Humidade 60%
Pressão 1026 hPa
Visibilidade: 16.1 km
Poucas nuvensa uma altura de 3000 ft

METAR: KAQO 201735Z AUTO 29008KT 10SM FEW030 20/12 A3030 RMK AO2

Hora: 12:50 (17:50 UTC)


TAF: em falta

Observações e previsões do tempo de mais de 4000 aeroportos (mensagens METAR e TAF).

As estações disponíveis são os pontos amarelos e vermelhos sobre o mapa.

Mova o rato sobre o mapa para ver o nome da estação.

Depois clique no ponto para visualizar as observações e previsões meteorológicas.

Para alterar o mapa : clique nos botões verdes com uma cruz preta para aumentar o zoom; no botão verde com uma pitada de zoom; ou nas setas verdes para mapas adjacentes.


METAR-TAF: